#timestamp,LO_Frequency,Hit,StdDev 
1560751215.7,286047001.1,P
1560751235.5,286047000.5,N
1560751255.4,286047000.1,N
1560751275.2,286047002.7,Y
1560751295.0,286047000.0,P
1560751296.0,286047000.0,N
1560751315.8,286046999.7,N
1560751335.6,286047002.5,Y
1560751355.5,286047002.3,P
1560751375.3,286047001.7,N
1560751395.1,286047003.4,P
1560751415.9,286047002.2,N
1560751435.7,286046999.7,N
1560751455.5,286047000.6,N
1560751475.3,286046998.6,N
1560751495.2,286046999.0,N
1560751515.0,286047001.2,N
1560751515.9,286047001.2,N
1560751535.8,286047000.5,N
1560751555.6,286047001.1,N
1560751575.4,286047000.2,N
1560751595.3,286046998.6,N
1560751615.1,286046999.8,N
1560751616.0,286046999.8,N
1560751635.8,286047002.3,N
1560751655.7,286047000.2,N
1560751675.5,286047000.4,N
1560751695.3,286047002.7,N
1560751715.1,286047002.8,N
1560751735.9,286047002.8,N
1560751755.7,286047002.8,N
1560751775.5,286047002.1,N
1560751795.4,286047002.2,N
1560751815.2,286047001.3,N
1560751835.0,286047001.6,N
1560751836.0,286047001.6,N
1560751855.8,286047000.2,N
1560751875.6,286047000.1,N
1560751895.5,286046999.7,N
1560751915.3,286047004.4,Y
1560751935.1,286047001.4,P
1560751955.9,286047002.2,P
1560751975.7,286047001.6,P
1560751995.5,286047002.2,Y
1560752015.4,286047000.1,P
1560752035.2,286046998.5,N
1560752055.0,286046998.1,N
1560752055.9,286046998.1,N
1560752075.8,286047000.0,N
1560752095.6,286047002.7,N
1560752115.4,286047002.2,N
1560752135.3,286047004.4,N
1560752155.1,286047001.3,N
1560752156.0,286047001.3,N
1560752175.8,286047003.0,N
1560752195.7,286047003.7,N
1560752215.5,286047001.3,N
1560752235.3,286047000.3,N
1560752255.2,286047001.1,N
1560752275.9,286046999.3,N
1560752295.7,286046997.7,N
1560752315.6,286046995.1,N
1560752335.4,286046993.6,N
1560752355.2,286046993.8,N
1560752375.1,286046996.1,N
1560752376.0,286046996.1,N
1560752395.8,286046997.7,N
1560752415.6,286046996.5,N
1560752435.5,286046999.3,N
1560752455.3,286046999.4,N
1560752475.1,286046999.6,N
1560752495.9,286046999.6,N
1560752515.7,286047000.8,N
1560752535.5,286047001.3,N
1560752555.4,286047001.8,N
1560752575.2,286047001.5,N
1560752595.0,286046999.8,N
1560752595.9,286046999.8,N
1560752615.8,286047001.2,N
1560752635.6,286046996.6,N
1560752655.4,286046997.2,N
1560752675.3,286046996.5,N
1560752695.1,286046998.1,N
1560752696.0,286046998.1,N
1560752715.8,286046998.6,N
1560752735.7,286046999.5,N
1560752755.5,286046995.4,N
1560752775.3,286046995.9,N
1560752795.2,286046993.7,N
1560752815.9,286046991.9,Y
1560752835.7,286046994.1,P
1560752855.6,286046994.5,N
1560752875.4,286046994.4,P
1560752895.2,286046993.1,Y
1560752915.1,286046997.5,P
1560752916.0,286046997.5,N
1560752935.8,286046996.7,P
1560752955.6,286047000.7,N
1560752975.5,286046999.2,N
1560752995.3,286046996.1,N
1560753015.1,286046997.9,N
1560753035.9,286046995.9,N
1560753055.7,286046996.3,N
1560753075.5,286046995.9,N
1560753095.4,286046995.1,Y
1560753115.2,286046999.9,P
1560753135.0,286047002.3,N
1560753135.9,286047002.3,N
1560753155.8,286047001.4,N
1560753175.6,286047001.4,N
1560753195.4,286047004.3,N
1560753215.3,286047004.3,N
1560753235.1,286047004.1,N
1560753255.8,286047003.1,N
1560753275.7,286047003.3,N
1560753295.5,286047005.2,N
1560753315.3,286047007.1,Y
1560753335.2,286047005.6,P
1560753355.9,286047006.0,P
1560753375.7,286047005.4,P
1560753395.6,286047004.7,Y
1560753415.4,286047002.4,P
1560753435.2,286047003.9,P
1560753455.1,286047004.2,P
1560753456.0,286047004.2,Y
1560753475.8,286047000.9,P
1560753495.6,286047000.4,N
1560753515.5,286047001.4,N
1560753535.3,286047003.2,N
1560753555.1,286047003.5,N
1560753575.9,286047007.2,Y
1560753595.7,286047006.0,P
1560753615.5,286047007.2,P
1560753635.4,286047007.2,P
1560753655.2,286047006.1,N
1560753675.0,286047008.7,Y
1560753676.0,286047008.7,P
1560753695.8,286047004.2,N
1560753715.6,286047003.5,N
1560753735.4,286047002.9,N
1560753755.3,286047005.4,N
1560753775.1,286047006.8,Y
1560753795.9,286047002.3,P
1560753815.7,286047000.5,N
1560753835.5,286046997.6,N
1560753855.4,286046993.8,N
1560753875.2,286046994.0,N
1560753895.0,286046993.5,N
1560753895.9,286046993.5,N
1560753915.8,286046992.2,N
1560753935.6,286046990.6,N
1560753955.4,286046991.2,N
1560753975.3,286046990.6,N
1560753995.1,286046992.6,N
1560753996.0,286046992.6,N
1560754015.8,286046990.7,N
1560754035.7,286046993.0,N
1560754055.5,286046991.8,N
1560754075.3,286046992.1,N
1560754095.2,286046994.4,N
1560754115.9,286046996.4,N
1560754135.7,286046995.0,N
1560754155.6,286046999.5,N
1560754175.4,286046999.1,N
1560754195.2,286047001.0,N
1560754215.1,286047003.3,N
1560754216.0,286047003.3,N
1560754235.8,286047004.8,N
1560754255.6,286047006.7,N
1560754275.5,286047006.9,N
1560754295.3,286047006.9,N
1560754315.1,286047006.6,N
1560754335.9,286047007.0,N
1560754355.7,286047003.3,N
1560754375.5,286047004.2,N
1560754395.4,286047001.8,N
1560754415.2,286046999.8,N
1560754435.0,286047000.2,N
1560754435.9,286047000.2,N
1560754455.8,286046999.7,N
1560754475.6,286047000.0,N
1560754495.4,286047000.4,N
1560754515.3,286047000.1,N
1560754535.1,286047000.3,N
1560754536.0,286047000.3,N
1560754555.8,286047000.3,N
1560754575.7,286047002.6,N
1560754595.5,286047004.2,N
1560754615.3,286047005.5,N
1560754635.2,286047005.6,N
1560754655.9,286047003.8,N
1560754675.7,286047002.6,N
1560754695.6,286047000.2,N
1560754715.4,286047002.5,N
1560754735.2,286047002.3,N
1560754755.0,286047002.2,N
1560754756.0,286047002.2,N
1560754775.8,286047002.6,N
1560754795.6,286046999.8,N
